| time (UTC) | temp F | wind direction | speed knots | gust knots | rain 1hr in | rain 24hr in | rain mn in | humidity % | barometer mb |
| 20260504100402 | 72 | 221 | 8.7 | 17.4 | 0.00 | 0.00 | 0.00 | 65 | 1009.9 |
| 20260504081403 | 66 | 77 | 1.7 | 2.6 | 0.00 | 0.00 | 0.00 | 81 | 1010.6 |
| 20260504080902 | 66 | 74 | 1.7 | 2.6 | 0.00 | 0.00 | 0.00 | 80 | 1010.6 |
| 20260504080403 | 67 | 79 | 2.6 | 4.3 | 0.00 | 0.00 | 0.00 | 79 | 1010.6 |
| 20260504070402 | 65 | 354 | 2.6 | 4.3 | 0.00 | 0.00 | 0.00 | 82 | 1010.5 |
| 20260504050402 | 64 | 211 | 0.9 | 1.7 | 0.00 | 0.00 | 0.00 | 84 | 1010.1 |
| 20260504045902 | 64 | 207 | 0.9 | 2.6 | 0.00 | 0.00 | 0.00 | 84 | 1010.1 |
| 20260504045403 | 64 | 255 | 0.9 | 2.6 | 0.00 | 0.00 | 0.00 | 84 | 1010.1 |
| 20260504044403 | 64 | 204 | 2.6 | 4.3 | 0.00 | 0.00 | 0.00 | 84 | 1010.2 |
| 20260504043903 | 63 | 246 | 1.7 | 2.6 | 0.00 | 0.00 | 0.00 | 84 | 1010.1 |
| 20260504043402 | 63 | 214 | 0.9 | 2.6 | 0.00 | 0.00 | 0.00 | 84 | 1010.0 |
| 20260504042903 | 63 | 217 | 0.0 | 2.6 | 0.00 | 0.00 | 0.00 | 84 | 1010.0 |
| 20260504042402 | 64 | 271 | 1.7 | 2.6 | 0.00 | 0.00 | 0.00 | 84 | 1010.1 |
| 20260504041902 | 64 | 300 | 0.9 | 2.6 | 0.00 | 0.00 | 0.00 | 84 | 1010.2 |
| 20260504041403 | 64 | 215 | 0.0 | 2.6 | 0.00 | 0.00 | 0.00 | 84 | 1010.2 |
| 20260504040903 | 64 | 222 | 1.7 | 2.6 | 0.00 | 0.00 | 0.00 | 84 | 1010.3 |
| 20260504040402 | 64 | 242 | 1.7 | 2.6 | 0.00 | 0.00 | 0.00 | 84 | 1010.3 |
| 20260504035903 | 64 | 249 | 1.7 | 2.6 | 0.00 | 0.00 | 0.00 | 84 | 1010.4 |
| 20260504035403 | 64 | 209 | 1.7 | 2.6 | 0.00 | 0.00 | 0.00 | 84 | 1010.5 |
| 20260504034403 | 64 | 234 | 2.6 | 4.3 | 0.00 | 0.00 | 0.00 | 84 | 1010.6 |
| 20260504033903 | 64 | 263 | 2.6 | 4.3 | 0.00 | 0.00 | 0.00 | 84 | 1010.7 |
| 20260504033402 | 64 | 252 | 1.7 | 2.6 | 0.00 | 0.00 | 0.00 | 84 | 1010.8 |
| 20260504032903 | 64 | 247 | 2.6 | 4.3 | 0.00 | 0.00 | 0.00 | 84 | 1010.8 |
| 20260504031902 | 64 | 292 | 1.7 | 2.6 | 0.00 | 0.00 | 0.00 | 84 | 1010.7 |
| 20260504031402 | 64 | 277 | 1.7 | 2.6 | 0.00 | 0.00 | 0.00 | 83 | 1010.8 |
| 20260504030402 | 64 | 277 | 0.0 | 1.7 | 0.00 | 0.00 | 0.00 | 83 | 1010.8 |
| 20260504025902 | 64 | 277 | 1.7 | 2.6 | 0.00 | 0.00 | 0.00 | 83 | 1010.9 |
| 20260504025402 | 64 | 279 | 0.0 | 1.7 | 0.00 | 0.00 | 0.00 | 83 | 1011.0 |
| 20260504024903 | 64 | 279 | 1.7 | 2.6 | 0.00 | 0.00 | 0.00 | 83 | 1011.0 |
| 20260504024402 | 64 | 256 | 0.9 | 1.7 | 0.00 | 0.00 | 0.00 | 83 | 1011.0 |
| 20260504023902 | 64 | 255 | 1.7 | 2.6 | 0.00 | 0.00 | 0.00 | 82 | 1011.1 |
| 20260504023403 | 64 | 248 | 0.9 | 1.7 | 0.00 | 0.00 | 0.00 | 82 | 1011.0 |
| 20260504022903 | 64 | 234 | 0.9 | 2.6 | 0.00 | 0.00 | 0.00 | 82 | 1011.1 |
| 20260504022402 | 64 | 269 | 0.9 | 2.6 | 0.00 | 0.00 | 0.00 | 82 | 1011.1 |
| 20260504021902 | 65 | 247 | 1.7 | 2.6 | 0.00 | 0.00 | 0.00 | 81 | 1011.0 |
| 20260504020902 | 65 | 331 | 0.9 | 2.6 | 0.00 | 0.00 | 0.00 | 81 | 1011.0 |
| 20260504020402 | 65 | 292 | 0.9 | 2.6 | 0.00 | 0.00 | 0.00 | 81 | 1011.0 |
| 20260504015903 | 65 | 286 | 0.9 | 1.7 | 0.00 | 0.00 | 0.00 | 81 | 1011.1 |
| 20260504015403 | 65 | 261 | 1.7 | 2.6 | 0.00 | 0.00 | 0.00 | 81 | 1011.3 |
| 20260504014902 | 65 | 192 | 0.0 | 0.0 | 0.00 | 0.00 | 0.00 | 81 | 1011.2 |
| 20260504014402 | 65 | 192 | 0.0 | 0.0 | 0.00 | 0.00 | 0.00 | 81 | 1011.1 |
| 20260504013903 | 65 | 192 | 0.0 | 0.9 | 0.00 | 0.00 | 0.00 | 81 | 1011.3 |
| 20260504013403 | 65 | 192 | 0.9 | 2.6 | 0.00 | 0.00 | 0.00 | 81 | 1011.3 |
| 20260504012902 | 65 | 192 | 0.9 | 1.7 | 0.00 | 0.00 | 0.00 | 81 | 1011.2 |
| 20260504011903 | 65 | 192 | 0.0 | 1.7 | 0.00 | 0.00 | 0.00 | 81 | 1011.1 |
| 20260504011402 | 65 | 192 | 0.9 | 1.7 | 0.00 | 0.00 | 0.00 | 81 | 1011.1 |
| 20260504010402 | 65 | 192 | 0.9 | 1.7 | 0.00 | 0.00 | 0.00 | 81 | 1011.0 |
| 20260504005903 | 65 | 192 | 0.9 | 1.7 | 0.00 | 0.00 | 0.00 | 81 | 1011.0 |
| 20260504005402 | 65 | 192 | 0.0 | 0.9 | 0.00 | 0.00 | 0.00 | 81 | 1010.9 |
| 20260504004903 | 65 | 192 | 0.0 | 0.9 | 0.00 | 0.00 | 0.00 | 80 | 1010.8 |
| 20260504004403 | 65 | 192 | 0.9 | 0.9 | 0.00 | 0.00 | 0.00 | 80 | 1010.9 |
| 20260504003903 | 65 | 192 | 0.0 | 0.9 | 0.00 | 0.00 | 0.00 | 81 | 1010.9 |
| 20260504003403 | 65 | 192 | 0.0 | 0.9 | 0.00 | 0.00 | 0.00 | 80 | 1011.0 |
| 20260504002402 | 65 | 192 | 0.0 | 1.7 | 0.00 | 0.00 | 0.00 | 81 | 1011.0 |
| 20260504001402 | 65 | 227 | 0.0 | 0.9 | 0.00 | 0.00 | 0.00 | 80 | 1011.2 |
| 20260504000902 | 65 | 227 | 0.9 | 1.7 | 0.00 | 0.00 | 0.00 | 80 | 1011.3 |
| 20260504000402 | 65 | 264 | 1.7 | 2.6 | 0.00 | 0.00 | 0.00 | 80 | 1011.4 |
| 20260503235903 | 65 | 24 | 0.0 | 1.7 | 0.00 | 0.00 | 0.00 | 80 | 1011.4 |
| 20260503235403 | 65 | 256 | 0.9 | 1.7 | 0.00 | 0.00 | 0.00 | 80 | 1011.4 |
| 20260503234902 | 65 | 160 | 0.9 | 1.7 | 0.00 | 0.00 | 0.00 | 80 | 1011.5 |
| 20260503234402 | 65 | 160 | 0.0 | 0.9 | 0.00 | 0.00 | 0.00 | 80 | 1011.5 |
| 20260503233902 | 65 | 160 | 0.9 | 1.7 | 0.00 | 0.00 | 0.00 | 80 | 1011.5 |
| 20260503232902 | 65 | 160 | 0.0 | 1.7 | 0.00 | 0.00 | 0.00 | 80 | 1011.7 |
| 20260503232402 | 65 | 160 | 0.9 | 1.7 | 0.00 | 0.00 | 0.00 | 80 | 1011.7 |
| 20260503231903 | 65 | 160 | 0.9 | 1.7 | 0.00 | 0.00 | 0.00 | 80 | 1011.6 |
| 20260503231403 | 65 | 160 | 0.0 | 0.9 | 0.00 | 0.00 | 0.00 | 80 | 1011.8 |
| 20260503230903 | 65 | 160 | 0.9 | 1.7 | 0.00 | 0.00 | 0.00 | 80 | 1011.9 |
| 20260503230402 | 65 | 161 | 0.9 | 2.6 | 0.00 | 0.00 | 0.00 | 80 | 1011.9 |
| 20260503225903 | 65 | 219 | 0.9 | 1.7 | 0.00 | 0.00 | 0.00 | 80 | 1011.9 |
| 20260503225403 | 65 | 219 | 0.9 | 1.7 | 0.00 | 0.00 | 0.00 | 80 | 1011.9 |
| 20260503224902 | 65 | 219 | 0.0 | 0.0 | 0.00 | 0.00 | 0.00 | 80 | 1011.9 |
| 20260503224403 | 65 | 219 | 0.9 | 1.7 | 0.00 | 0.00 | 0.00 | 80 | 1012.0 |
| 20260503223903 | 65 | 219 | 0.0 | 0.9 | 0.00 | 0.00 | 0.00 | 80 | 1012.0 |
| 20260503223403 | 65 | 219 | 0.0 | 0.9 | 0.00 | 0.00 | 0.00 | 80 | 1012.0 |
| 20260503222902 | 65 | 219 | 0.0 | 0.9 | 0.00 | 0.00 | 0.00 | 81 | 1012.0 |
| 20260503222402 | 65 | 219 | 0.0 | 1.7 | 0.00 | 0.00 | 0.00 | 81 | 1012.0 |
| 20260503221903 | 65 | 219 | 0.9 | 1.7 | 0.00 | 0.00 | 0.00 | 81 | 1011.9 |
| 20260503221402 | 65 | 219 | 0.0 | 0.9 | 0.00 | 0.00 | 0.00 | 81 | 1011.9 |
| 20260503220902 | 64 | 219 | 0.0 | 1.7 | 0.00 | 0.00 | 0.00 | 81 | 1012.0 |
| 20260503220402 | 64 | 220 | 0.0 | 1.7 | 0.00 | 0.00 | 0.00 | 81 | 1012.0 |
| 20260503215403 | 64 | 277 | 0.9 | 1.7 | 0.00 | 0.00 | 0.00 | 81 | 1012.1 |
| 20260503214903 | 64 | 277 | 0.0 | 0.0 | 0.00 | 0.00 | 0.00 | 81 | 1012.2 |
| 20260503214403 | 64 | 277 | 0.0 | 0.0 | 0.00 | 0.00 | 0.00 | 81 | 1012.1 |
| 20260503213903 | 64 | 277 | 0.0 | 0.9 | 0.00 | 0.00 | 0.00 | 81 | 1012.2 |
| 20260503213402 | 64 | 277 | 0.0 | 1.7 | 0.00 | 0.00 | 0.00 | 81 | 1012.3 |
| 20260503212902 | 64 | 277 | 1.7 | 2.6 | 0.00 | 0.00 | 0.00 | 81 | 1012.3 |
| 20260503212402 | 64 | 277 | 0.9 | 1.7 | 0.00 | 0.00 | 0.00 | 81 | 1012.2 |
| 20260503211903 | 64 | 210 | 0.9 | 2.6 | 0.00 | 0.00 | 0.00 | 81 | 1012.2 |
| 20260503211403 | 64 | 234 | 0.9 | 2.6 | 0.00 | 0.00 | 0.00 | 81 | 1012.2 |
| 20260503210902 | 64 | 250 | 2.6 | 2.6 | 0.00 | 0.00 | 0.00 | 81 | 1012.0 |
| 20260503210402 | 64 | 245 | 2.6 | 5.2 | 0.00 | 0.00 | 0.00 | 82 | 1012.0 |
| 20260503205902 | 64 | 244 | 3.5 | 4.3 | 0.00 | 0.00 | 0.00 | 81 | 1012.0 |
| 20260503204402 | 64 | 212 | 1.7 | 2.6 | 0.00 | 0.00 | 0.00 | 81 | 1011.9 |
| 20260503203902 | 64 | 235 | 0.9 | 2.6 | 0.00 | 0.00 | 0.00 | 81 | 1011.9 |
| 20260503202903 | 64 | 235 | 0.9 | 2.6 | 0.00 | 0.00 | 0.00 | 81 | 1011.8 |
| 20260503201903 | 64 | 257 | 1.7 | 2.6 | 0.00 | 0.00 | 0.00 | 81 | 1011.7 |
| 20260503201403 | 65 | 233 | 1.7 | 2.6 | 0.00 | 0.00 | 0.00 | 80 | 1011.5 |
| 20260503200902 | 65 | 237 | 1.7 | 2.6 | 0.00 | 0.00 | 0.00 | 80 | 1011.4 |
| 20260503195403 | 65 | 328 | 0.0 | 1.7 | 0.00 | 0.00 | 0.00 | 80 | 1011.3 |
| 20260503194902 | 65 | 328 | 0.0 | 1.7 | 0.00 | 0.00 | 0.00 | 80 | 1011.2 |
| 20260503194402 | 65 | 288 | 0.0 | 1.7 | 0.00 | 0.00 | 0.00 | 79 | 1011.2 |
| 20260503193903 | 65 | 335 | 0.9 | 2.6 | 0.00 | 0.00 | 0.00 | 80 | 1011.1 |
| 20260503192402 | 65 | 30 | 0.9 | 2.6 | 0.00 | 0.00 | 0.00 | 80 | 1010.9 |
| 20260503191903 | 65 | 74 | 0.9 | 2.6 | 0.00 | 0.00 | 0.00 | 80 | 1010.8 |
| 20260503191403 | 65 | 49 | 2.6 | 4.3 | 0.00 | 0.00 | 0.00 | 79 | 1010.7 |
| 20260503190902 | 65 | 334 | 1.7 | 4.3 | 0.00 | 0.00 | 0.00 | 79 | 1010.8 |
| 20260503190403 | 66 | 94 | 1.7 | 4.3 | 0.00 | 0.00 | 0.00 | 79 | 1010.8 |
| 20260503185903 | 65 | 110 | 0.9 | 1.7 | 0.00 | 0.00 | 0.00 | 79 | 1010.7 |
| 20260503185402 | 65 | 110 | 0.9 | 1.7 | 0.00 | 0.00 | 0.00 | 80 | 1010.7 |
| 20260503184403 | 65 | 73 | 0.9 | 2.6 | 0.00 | 0.00 | 0.00 | 80 | 1010.8 |
| 20260503183402 | 65 | 42 | 0.9 | 2.6 | 0.00 | 0.00 | 0.00 | 80 | 1010.8 |
| 20260503181902 | 66 | 46 | 2.6 | 4.3 | 0.00 | 0.00 | 0.00 | 79 | 1010.6 |
| 20260503181403 | 65 | 64 | 0.9 | 2.6 | 0.00 | 0.00 | 0.00 | 79 | 1010.5 |
| 20260503180902 | 65 | 58 | 1.7 | 5.2 | 0.00 | 0.00 | 0.00 | 78 | 1010.4 |
| 20260503180403 | 66 | 89 | 2.6 | 5.2 | 0.00 | 0.00 | 0.00 | 78 | 1010.4 |
| 20260503175902 | 65 | 82 | 1.7 | 2.6 | 0.00 | 0.00 | 0.00 | 79 | 1010.4 |
| 20260503175403 | 65 | 47 | 4.3 | 6.1 | 0.00 | 0.00 | 0.00 | 79 | 1010.4 |
| 20260503174903 | 66 | 43 | 4.3 | 6.1 | 0.00 | 0.00 | 0.00 | 79 | 1010.5 |
| 20260503174403 | 65 | 73 | 2.6 | 4.3 | 0.00 | 0.00 | 0.00 | 79 | 1010.6 |
| 20260503173403 | 66 | 120 | 2.6 | 5.2 | 0.00 | 0.00 | 0.00 | 78 | 1010.6 |
| 20260503172403 | 66 | 67 | 2.6 | 6.1 | 0.00 | 0.00 | 0.00 | 79 | 1010.4 |
| 20260503171902 | 66 | 88 | 2.6 | 6.1 | 0.00 | 0.00 | 0.00 | 79 | 1010.4 |
| 20260503171402 | 65 | 65 | 4.3 | 7.0 | 0.00 | 0.00 | 0.00 | 79 | 1010.4 |
| 20260503170903 | 65 | 69 | 5.2 | 10.4 | 0.00 | 0.00 | 0.00 | 79 | 1010.4 |
| 20260503150902 | 67 | 38 | 5.2 | 8.7 | 0.00 | 0.00 | 0.00 | 78 | 1011.2 |
| 20260503131403 | 69 | 1 | 6.1 | 8.7 | 0.00 | 0.00 | 0.00 | 73 | 1011.8 |
| 20260503130903 | 68 | 37 | 4.3 | 6.1 | 0.00 | 0.00 | 0.00 | 74 | 1011.8 |
| 20260503130403 | 67 | 24 | 4.3 | 7.0 | 0.00 | 0.00 | 0.00 | 74 | 1011.9 |
| 20260503110403 | 67 | 347 | 4.3 | 6.1 | 0.00 | 0.00 | 0.00 | 73 | 1012.8 |